Regional Weather Roundup
Issued by NWS

Home | Current Version | Previous Version | Graphics & Text | Print | Product List | Glossary On
Versions: 1 2 3 4 5 6 7 8 9 10 11 12 13 14 15 16 17 18 19 20 21 22 23 24 25 26 27 28 29 30 31 32 33 34 35 36 37 38 39 40 41 42 43 44 45 46 47 48 49 50
000
ASUS43 KDMX 251401
RWRIA

WEATHER ROUNDUP FOR IOWA
NATIONAL WEATHER SERVICE DES MOINES IA
900 AM CDT MON SEP 25 2017

NOTE: "FAIR" INDICATES FEW OR NO CLOUDS BELOW 12,000 FEET WITH NO
SIGNIFICANT WEATHER AND/OR OBSTRUCTIONS TO VISIBILITY.

* - THESE STATIONS ARE NOT NWS STATIONS...THUS NOT UNDER NWS
QUALITY CONTROL.  THEY ALSO DO NOT REPORT WEATHER SUCH
AS PRECIPITATION OR FOG.

IAZ001>003-012>014-020>022-031>034-043>046-251500-
   NORTHWEST IOWA

CITY           SKY/WX    TMP DP  RH WIND       PRES   REMARKS
CARROLL *      LGT RAIN  66  66 100 N10       29.97R VSB 1/4
DENISON *      FOG       63  63 100 E7G14     30.00S VSB 1
LE MARS *      CLOUDY    55  54  94 NE8       29.99R
ORANGE CITY *  CLOUDY    55  55 100 NE6       30.00R
SHELDON *      CLOUDY    54  52  94 NE6G20    29.98R
SIOUX CITY     CLOUDY    58  57  97 NE8       29.98S
SPENCER        LGT RAIN  56  54  93 NE13      29.99F
STORM LAKE *   MOSUNNY   57  57 100 E8G15     29.98F
$$

IAZ055>058-069>071-079>083-090>094-251500-
   SOUTHWEST IOWA

CITY           SKY/WX    TMP DP  RH WIND       PRES   REMARKS
ATLANTIC *     CLOUDY    64  64 100 NE6       29.96R
AUDUBON *      CLOUDY    64  63  94 N3        29.98R FOG
CLARINDA *     SUNNY     68  66  94 NE5       29.96S
COUNCIL BLFS * FOG       59  59 100 N13       29.95F VSB<1/4
CRESTON *      MOSUNNY   70  66  88 E5        29.97S
HARLAN  *      CLOUDY    64  64 100 N8        30.01R
LAMONI         MOSUNNY   70  65  84 VRB6      29.96S
RED OAK *      CLOUDY    66  66 100 N6        29.95S
SHENANDOAH *   CLOUDY    66  64  94 NE7       29.94F FOG
$$

IAZ047>049-059>061-072>074-084-251500-
   CENTRAL IOWA

CITY           SKY/WX    TMP DP  RH WIND       PRES   REMARKS
AMES           SUNNY     70  67  90 N6        29.96R
ANKENY *       MOSUNNY   70  66  88 CALM      29.97R
BOONE *        PTSUNNY   68  64  88 N9        29.95S FOG
CHARITON *     SUNNY     70  64  83 S6        29.96S
DES MOINES     MOSUNNY   71  65  81 W3        29.95R
GRINNELL*      PTSUNNY   72  64  75 S6        29.98R
KNOXVILLE *    MOSUNNY   72  64  78 S5        29.95R
MARSHALLTOWN   PTSUNNY   69  66  90 SE5       29.94S
NEWTON *       MOSUNNY   70  64  83 S7        29.96R
PELLA *        PTSUNNY   72  64  75 CALM      29.97R
PERRY *        CLOUDY    67  67  99 NE5       29.96S FOG
$$

IAZ004>006-015-016-023>025-035-036-251500-
   NORTH CENTRAL IOWA

CITY           SKY/WX    TMP DP  RH WIND       PRES   REMARKS
ALGONA *       CLOUDY    59  59 100 N8        30.00R
CLARION *      CLOUDY    64  64 100 NE9       29.96F FOG
ESTHERVILLE    LGT RAIN  53  53 100 N13       30.00R
FORT DODGE *   FOG       63  62  97 N7        29.98S VSB 3/4
MASON CITY     CLOUDY    64  63  96 N10       29.99F
FOREST CITY *  FOG       61  61 100 NE8       29.98F VSB 1/2
WEBSTER CITY * CLOUDY    64  64 100 NE9       29.95S FOG
IOWA FALLS *   RAIN      67  64  93 N5        29.97S
$$

IAZ007>011-017>019-026>030-037>042-050>054-066-251500-
   NORTHEAST IOWA

CITY           SKY/WX    TMP DP  RH WIND       PRES   REMARKS
CEDAR RAPIDS   MOSUNNY   73  64  73 S7        29.97R
CHARLES CITY * MOSUNNY   68  64  88 CALM      29.97S
CLINTON *      SUNNY    N/A N/A N/A SE8       30.00S
DECORAH *      MOSUNNY   70  63  78 CALM      29.96S
DUBUQUE        SUNNY     73  64  73 S5        30.00R
MONTICELLO *   MOSUNNY   72  64  78 VRB5      29.98R
OELWEIN *      MOSUNNY   73  66  78 S6        29.98S
WATERLOO       MOSUNNY   71  62  73 SE5       29.95S
$$

IAZ064-065-067-068-078-251500-
   EAST CENTRAL IOWA

CITY           SKY/WX    TMP DP  RH WIND       PRES   REMARKS
DAVENPORT      SUNNY     74  63  68 SE3       30.01R
IOWA CITY      SUNNY     72  65  78 SE5       29.99
MUSCATINE *    SUNNY     72  64  78 SE3       29.98S
QUAD CITIES    SUNNY     73  62  68 E3        29.98S
$$

IAZ062-063-075>077-085>089-095>099-251500-
   SOUTHEAST IOWA

CITY           SKY/WX    TMP DP  RH WIND       PRES   REMARKS
BURLINGTON     SUNNY     73  66  78 S3        29.98S
FAIRFIELD *    MOSUNNY   75  64  69 S7        29.97R
FORT MADISON * SUNNY     75  66  73 CALM      29.99S
KEOKUK *       SUNNY     73  66  78 CALM      29.98S
OTTUMWA        MOSUNNY   74  64  71 S6        29.97R
WASHINGTON *   SUNNY     73  66  78 S5        29.98S
$$

ABBREVIATIONS USED IN REMARKS
   TC - TEMPERATURES IN CELSIUS
  WCI - WIND CHILL INDEX
   HX - HEAT INDEX
  VSB - VISIBILITY
$$




USA.gov is the U.S. government's official web portal to all federal, state and local government web resources and services.